TimeEDT,TemperatureF,Dew PointF,Humidity,Sea Level PressureIn,VisibilityMPH,Wind Direction,Wind SpeedMPH,Gust SpeedMPH,PrecipitationIn,Events,Conditions,WindDirDegrees,DateUTC
12:52 AM,62.1,60.1,93,30.19,8.0,Calm,Calm,-,N/A,,Mostly Cloudy,0,2013-08-19 04:52:00
1:52 AM,62.1,60.1,93,30.18,7.0,Calm,Calm,-,N/A,,Mostly Cloudy,0,2013-08-19 05:52:00
2:52 AM,62.1,60.1,93,30.17,5.0,Calm,Calm,-,N/A,,Scattered Clouds,0,2013-08-19 06:52:00
3:52 AM,60.1,57.9,93,30.17,4.0,Calm,Calm,-,N/A,,Partly Cloudy,0,2013-08-19 07:52:00
4:52 AM,60.1,59.0,96,30.15,4.0,Calm,Calm,-,N/A,,Mostly Cloudy,0,2013-08-19 08:52:00
5:52 AM,61.0,59.0,93,30.16,4.0,Calm,Calm,-,N/A,,Overcast,0,2013-08-19 09:52:00
6:52 AM,62.1,60.1,93,30.16,5.0,Calm,Calm,-,N/A,,Overcast,0,2013-08-19 10:52:00
7:33 AM,62.6,60.8,94,30.17,5.0,Calm,Calm,-,N/A,,Mostly Cloudy,0,2013-08-19 11:33:00
7:52 AM,63.0,61.0,93,30.17,4.0,SW,4.6,-,N/A,,Mostly Cloudy,220,2013-08-19 11:52:00
8:52 AM,64.9,63.0,93,30.16,9.0,South,5.8,-,N/A,,Mostly Cloudy,190,2013-08-19 12:52:00
9:52 AM,68.0,61.0,78,30.15,10.0,SSW,8.1,-,N/A,,Overcast,200,2013-08-19 13:52:00
10:52 AM,68.0,61.0,78,30.15,10.0,South,6.9,-,N/A,,Overcast,180,2013-08-19 14:52:00
11:52 AM,69.1,61.0,75,30.14,10.0,SSW,6.9,-,N/A,,Overcast,210,2013-08-19 15:52:00
12:52 PM,70.0,63.0,78,30.14,10.0,SSW,6.9,-,N/A,,Overcast,210,2013-08-19 16:52:00
1:40 PM,71.6,64.4,78,30.14,10.0,South,8.1,-,N/A,,Overcast,190,2013-08-19 17:40:00
1:52 PM,71.1,63.0,75,30.13,10.0,South,9.2,-,N/A,,Overcast,190,2013-08-19 17:52:00
2:52 PM,73.0,64.0,73,30.11,10.0,SSW,6.9,-,N/A,,Overcast,200,2013-08-19 18:52:00
3:28 PM,73.4,64.4,73,30.11,10.0,SW,6.9,-,N/A,,Overcast,220,2013-08-19 19:28:00
3:52 PM,73.9,64.9,73,30.10,10.0,Variable,5.8,-,N/A,,Overcast,0,2013-08-19 19:52:00
4:52 PM,73.9,64.9,73,30.09,10.0,SSE,4.6,-,N/A,,Overcast,160,2013-08-19 20:52:00
5:20 PM,73.4,64.4,73,30.10,10.0,SW,5.8,-,N/A,,Mostly Cloudy,230,2013-08-19 21:20:00
5:52 PM,73.9,64.9,73,30.09,10.0,South,5.8,-,N/A,,Mostly Cloudy,180,2013-08-19 21:52:00
6:52 PM,73.9,64.9,73,30.09,10.0,SW,8.1,-,N/A,,Mostly Cloudy,220,2013-08-19 22:52:00
7:52 PM,71.1,64.9,81,30.09,10.0,SSW,5.8,-,N/A,,Mostly Cloudy,210,2013-08-19 23:52:00
8:52 PM,70.0,64.9,84,30.10,10.0,SW,4.6,-,N/A,,Mostly Cloudy,220,2013-08-20 00:52:00
9:37 PM,71.6,64.4,78,30.12,10.0,SSW,8.1,-,N/A,,Overcast,210,2013-08-20 01:37:00
9:52 PM,71.1,64.9,81,30.12,10.0,SSW,5.8,-,N/A,,Overcast,210,2013-08-20 01:52:00
10:52 PM,71.1,64.9,81,30.12,10.0,SSW,5.8,-,N/A,,Overcast,210,2013-08-20 02:52:00
11:52 PM,71.1,64.9,81,30.13,10.0,SW,3.5,-,N/A,,Overcast,230,2013-08-20 03:52:00